Theta_e
321 327 327 325 322 324 326 327 327 326 324 328 329 331 331 333 338 340 341 341 341 341 340 339 336 334 333 332 331 332 330 329 328 329 329 328 332 332 330 320 317 316 315 313
325 327 323 321 323 326 326 327 327 326 324 329 330 331 333 333 337 338 339 339 340 340 340 340 339 335 333 332 331 332 332 332 331 331 330 330 332 330 321 318 317 315 314 312
326 324 321 325 326 328 327 329 328 328 326 324 328 332 330 329 335 337 337 337 338 339 339 339 340 338 335 333 332 332 332 331 331 331 330 331 330 322 319 318 316 315 314 312
325 323 324 326 326 326 329 326 326 326 327 328 323 329 331 328 334 335 336 337 337 334 333 333 336 338 337 334 332 331 331 331 332 332 331 331 325 320 319 317 315 314 312 313
325 325 326 327 326 325 328 325 325 325 326 326 326 329 331 329 334 334 335 335 334 330 331 333 334 334 334 333 334 332 330 331 331 330 331 327 321 319 317 315 314 311 312 314
325 323 325 326 323 324 323 324 323 324 326 328 326 327 330 332 333 331 330 330 331 332 333 333 334 334 333 332 331 331 330 330 331 330 326 321 319 317 315 314 311 312 313 311
327 327 325 325 328 327 327 329 327 326 329 327 325 328 329 329 326 327 328 329 329 331 332 332 332 332 331 330 328 328 330 330 330 324 321 319 317 315 313 311 311 312 311 309
329 329 328 325 327 329 326 329 328 328 329 327 326 329 328 325 324 324 324 327 328 329 329 329 330 329 329 328 326 329 331 330 324 321 319 317 315 313 311 311 311 310 309 308
331 330 327 325 325 327 328 331 324 329 325 328 327 328 327 325 325 324 325 327 331 328 328 327 328 328 328 328 329 328 327 324 321 318 316 315 312 312 311 310 310 309 307 308
332 333 328 328 327 325 328 324 331 329 330 330 329 328 327 328 328 327 326 327 329 327 327 327 327 327 327 326 324 321 321 320 317 316 315 313 313 312 311 310 307 306 307 308
329 334 330 328 329 330 329 329 326 328 329 330 329 328 328 329 329 328 327 325 325 326 326 326 325 326 324 320 318 317 317 318 316 316 314 313 313 312 311 308 306 307 308 308
326 332 332 329 326 325 326 326 328 330 330 328 327 328 324 325 325 324 324 325 325 324 324 323 323 322 320 318 317 317 317 317 316 315 314 314 313 312 310 305 308 308 309 309
329 331 333 331 329 328 329 325 323 325 325 331 328 326 324 325 325 323 324 324 322 322 322 322 322 320 320 319 317 317 317 316 316 315 315 314 313 310 305 307 308 308 309 310
327 329 333 331 329 328 328 327 324 327 330 326 326 327 327 328 327 325 324 322 321 322 322 321 320 321 321 320 319 317 316 316 316 315 314 313 312 305 307 307 308 309 309 310
333 335 330 326 327 327 327 326 326 327 328 329 328 326 327 327 325 324 322 321 322 321 321 320 321 322 322 320 318 318 317 316 316 315 314 313 306 306 307 308 309 309 310 310
326 333 329 329 327 328 328 327 327 327 326 325 326 328 324 323 322 323 323 322 323 322 321 321 320 320 319 319 319 318 317 316 316 315 314 309 306 307 308 308 309 309 309 309
331 331 330 331 328 328 330 328 328 327 326 326 328 327 325 326 324 324 323 323 323 322 321 320 321 322 323 323 321 318 317 316 316 315 311 306 307 307 308 309 309 307 308 308
330 331 330 332 330 332 328 325 327 328 330 328 328 327 324 325 325 324 323 322 321 321 321 322 320 320 320 320 320 318 316 316 315 313 308 307 308 308 309 308 306 306 307 307
328 332 333 335 333 330 330 329 330 331 330 329 329 326 325 325 325 325 323 324 323 323 321 320 320 320 319 318 319 317 316 315 314 309 307 308 308 309 308 305 306 306 305 306
328 330 333 332 335 333 331 327 326 326 331 326 328 328 327 326 328 327 321 320 320 320 320 320 320 320 320 319 318 316 315 315 311 307 307 309 309 308 305 305 306 306 306 308
332 331 334 332 334 331 329 326 324 332 333 325 327 328 327 328 325 320 320 320 320 319 318 317 316 317 320 320 317 316 315 314 307 308 308 309 309 305 305 307 306 308 308 308
329 332 333 330 332 328 326 326 330 330 323 327 325 326 326 323 319 320 320 319 318 317 315 314 315 321 321 318 316 314 315 309 308 309 309 309 306 305 306 307 307 307 307 308
327 328 331 332 329 327 324 326 324 323 326 326 324 322 320 319 320 320 319 318 317 316 313 313 318 320 320 317 315 314 313 307 309 310 310 308 304 306 306 306 306 307 307 307
324 324 330 330 328 326 326 324 325 325 324 323 322 320 320 320 320 319 318 318 317 316 313 314 319 320 319 316 314 314 308 308 310 311 308 305 304 306 306 306 306 307 306 306
323 326 328 328 326 326 327 326 324 325 323 324 320 320 320 320 319 319 318 318 317 314 314 313 319 320 317 315 314 312 306 309 310 310 306 304 304 305 305 306 306 306 306 306
320 326 326 324 327 329 328 326 325 325 324 319 319 319 319 319 320 319 319 317 316 315 313 315 320 319 316 315 314 308 307 310 311 309 306 304 304 304 305 305 306 305 307 307
Wind_Speed
5 5 5 3 1 3 5 5 5 3 5 4 3 4 9 5 1 3 7 10 14 14 16 21 19 19 12 11 11 14 15 15 16 16 17 19 21 19 18 17 19 23 28 33
2 4 2 5 6 5 5 3 2 1 5 2 2 5 8 7 2 3 6 9 13 13 18 22 25 23 18 16 13 14 15 16 17 18 18 20 22 21 17 19 24 27 32 34
1 2 4 5 6 6 3 2 1 3 3 7 1 2 5 5 4 2 4 9 11 13 17 21 25 27 25 21 17 15 14 14 15 18 21 22 25 20 23 27 29 32 35 33
2 3 7 7 4 1 1 2 3 2 2 2 4 1 1 6 4 3 1 4 7 8 11 13 15 19 22 20 19 16 14 15 17 21 21 26 22 24 28 29 33 36 35 32
2 5 5 6 2 1 3 6 4 3 4 2 6 3 2 3 3 3 2 4 7 11 12 11 12 14 16 17 18 17 17 16 19 22 25 22 23 27 28 32 36 35 33 32
3 1 2 3 2 2 6 2 4 3 0 2 5 3 1 3 3 3 5 7 12 13 11 12 12 13 12 12 13 16 19 20 20 22 19 22 25 27 32 36 34 33 32 31
3 3 1 2 3 4 4 3 3 1 3 3 3 3 3 5 4 7 7 10 14 7 10 9 10 10 8 8 10 14 18 19 21 17 20 23 25 31 34 32 31 31 25 24
3 3 1 2 1 2 4 3 4 4 4 6 2 2 2 3 5 8 10 14 11 10 9 9 8 6 7 7 11 14 16 17 16 19 22 26 29 30 29 29 29 30 23 19
4 3 0 4 3 2 3 2 2 5 1 3 2 3 6 4 8 10 14 16 9 9 8 8 7 8 8 9 14 16 15 15 18 22 25 27 27 27 27 28 29 24 24 20
5 3 2 3 1 13 1 7 0 2 3 6 2 4 5 6 11 13 17 13 8 10 10 9 8 9 9 11 14 15 16 17 19 22 24 25 25 26 26 28 28 24 22 23
4 1 2 2 3 1 3 2 5 2 2 4 5 6 3 9 8 10 15 7 9 9 9 10 9 9 8 10 13 14 15 17 19 21 23 23 24 26 28 29 24 21 24 24
2 3 3 2 1 1 2 3 2 0 1 0 2 7 2 6 11 12 13 9 8 7 7 8 7 5 8 10 13 14 17 18 20 22 23 24 26 29 31 25 19 21 23 27
7 2 3 3 3 2 2 3 4 4 1 4 4 5 2 9 9 6 7 8 6 6 9 8 6 5 8 11 14 17 18 19 21 22 23 25 29 32 28 20 19 22 25 27
4 3 2 3 2 3 4 2 2 1 2 3 8 12 13 10 7 4 4 4 5 9 10 7 6 9 12 15 18 19 20 20 21 23 24 27 31 30 23 19 21 24 27 23
2 3 1 2 3 2 2 2 4 4 4 5 9 6 10 9 7 6 4 3 5 8 9 8 9 14 18 21 22 22 21 21 22 22 25 29 31 25 20 20 22 27 24 19
2 3 2 3 1 1 2 3 3 3 2 7 7 8 5 7 5 4 5 6 8 10 11 12 17 21 26 29 28 26 22 21 20 23 27 31 27 20 19 21 25 24 20 15
2 5 3 2 1 2 4 4 2 3 4 3 6 4 10 5 6 7 9 9 9 12 13 17 23 26 28 29 26 21 19 17 20 24 28 27 22 18 20 22 23 19 17 15
5 4 1 2 2 4 2 3 4 7 10 7 6 4 2 2 5 9 12 10 11 13 16 18 20 23 24 25 22 17 14 16 19 26 26 21 18 19 22 22 20 20 13 10
3 4 3 2 3 3 4 4 5 6 7 3 5 1 1 3 2 9 14 13 11 13 14 19 19 21 21 23 21 14 13 15 23 25 21 18 19 21 20 21 20 13 11 7
6 6 0 3 3 7 4 2 4 4 6 2 3 2 2 2 4 5 11 12 12 13 16 18 19 22 23 21 15 11 13 18 23 21 17 18 21 18 21 19 16 14 9 5
2 2 3 3 4 5 6 4 5 4 3 3 1 1 1 2 4 4 7 10 13 16 18 22 25 26 25 19 13 10 13 19 19 18 15 18 16 20 19 15 13 14 10 10
2 2 2 2 3 8 1 5 4 1 4 4 2 2 5 5 4 5 8 12 17 23 28 28 27 25 22 14 9 9 15 18 17 14 16 15 16 18 17 15 14 12 11 9
3 3 1 6 2 1 3 3 6 3 2 4 3 5 5 3 4 6 10 16 21 27 30 27 27 25 18 9 6 10 15 15 13 14 14 12 14 16 15 19 16 15 10 12
4 3 2 2 4 7 6 8 7 5 2 5 4 2 1 2 4 8 12 17 22 28 28 28 28 23 12 4 5 12 14 12 12 13 10 11 10 12 15 15 12 12 14 11
1 9 5 4 6 5 6 9 9 6 7 4 4 2 2 4 7 9 13 18 23 28 28 27 26 15 5 3 8 11 11 10 12 11 10 10 9 9 13 12 12 13 11 8
8 6 5 7 7 4 3 8 11 8 5 5 3 1 4 7 8 12 15 19 23 26 28 23 19 8 3 5 9 10 9 10 10 10 10 10 9 7 8 8 8 10 11 12
Wind_Direction
16 74 39 39 58 107 120 93 75 80 25 104 55 359 347 333 212 213 212 219 229 226 224 230 235 248 275 298 280 252 250 246 251 261 267 278 294 302 307 307 316 325 328 327
53 96 18 125 139 108 88 77 44 178 23 119 160 51 14 10 300 256 236 239 240 240 242 244 243 250 267 287 288 273 254 248 257 266 274 279 295 307 303 316 321 323 323 322
151 79 144 140 126 101 71 98 232 311 68 74 296 129 15 10 356 290 257 256 253 251 255 250 249 255 260 275 287 288 262 265 270 274 281 292 306 305 309 312 316 320 319 318
49 353 157 130 88 0 28 341 288 311 241 341 339 257 23 351 17 18 2 239 242 237 244 251 260 259 260 274 287 299 290 282 279 287 287 297 301 305 309 313 317 316 316 315
53 105 111 82 36 259 53 60 56 57 110 169 24 272 77 340 162 159 204 237 227 218 241 260 267 273 271 275 287 294 293 284 283 289 291 297 301 306 310 315 315 314 314 308
94 31 40 86 95 68 126 99 69 85 119 39 359 304 140 190 205 196 228 238 229 235 254 257 268 270 274 286 296 291 283 283 292 293 294 299 305 311 313 313 314 315 312 311
69 34 73 137 96 80 62 25 360 46 26 358 360 269 352 242 261 246 244 234 236 261 254 257 264 267 276 280 285 289 290 287 291 296 300 307 310 310 312 315 314 312 314 316
137 161 279 32 10 107 56 33 31 356 333 336 312 345 29 272 264 251 255 246 253 249 250 254 255 261 265 268 282 290 291 293 292 304 309 308 307 311 314 315 314 314 314 317
147 181 30 34 103 318 135 74 70 109 111 276 352 246 256 246 249 248 246 242 248 253 245 252 252 257 261 273 289 301 301 297 306 309 307 308 311 315 317 314 315 314 315 314
175 134 40 131 107 52 298 130 298 52 315 324 296 278 301 270 243 235 242 243 249 254 245 254 262 267 268 285 304 307 305 305 303 301 305 310 315 319 317 318 319 314 314 312
137 127 146 201 28 72 146 145 66 94 340 305 305 306 253 280 301 285 267 248 245 251 246 255 265 266 285 299 301 305 298 291 297 302 308 314 320 322 322 322 318 317 317 314
94 114 131 94 92 268 75 103 120 30 275 169 314 283 14 302 297 283 279 234 234 241 247 260 269 266 281 287 287 285 285 291 297 307 315 319 323 324 324 322 321 323 317 318
177 57 113 131 158 130 100 102 98 97 98 219 287 287 334 311 304 286 238 229 227 237 267 270 239 285 285 285 280 282 285 290 301 311 317 320 324 326 325 321 317 316 319 322
112 100 172 213 111 112 156 135 135 202 239 303 263 298 314 328 302 317 324 310 274 274 270 258 242 294 295 292 286 283 286 295 306 312 319 323 328 328 323 319 317 317 322 319
64 103 111 93 91 154 162 177 181 237 279 263 320 285 298 349 337 332 315 290 285 284 284 246 280 311 307 300 296 293 291 297 302 317 322 326 329 325 322 320 321 321 321 321
13 127 137 147 104 10 248 264 256 243 246 260 277 285 5 326 321 318 297 294 306 308 305 286 283 305 315 315 312 302 292 292 307 320 325 329 328 325 322 326 326 324 327 325
74 138 156 177 4 0 275 229 210 277 245 259 274 337 324 330 18 14 349 329 315 329 326 323 326 325 323 321 317 301 291 298 314 324 332 330 329 327 328 328 328 339 345 341
129 112 87 133 159 248 1 251 274 264 280 249 263 282 317 3 11 38 19 353 342 336 341 348 352 348 345 337 326 309 303 307 324 335 334 335 335 334 332 334 340 328 329 339
62 129 108 200 214 326 244 213 201 203 283 227 242 201 225 321 326 57 29 29 18 359 349 346 342 344 339 336 332 320 308 326 339 338 342 344 342 337 339 341 341 343 339 356
72 73 180 160 228 270 285 150 155 153 281 184 217 232 314 345 312 38 19 15 5 355 353 345 338 334 330 327 322 315 329 342 341 344 352 351 344 348 348 350 2 358 4 20
110 70 238 176 249 276 252 172 147 229 299 163 183 333 44 13 53 23 12 11 4 360 352 348 343 335 333 325 323 322 342 344 347 356 357 352 355 357 5 16 15 23 39 66
171 167 210 152 265 284 87 137 219 341 170 160 143 105 102 108 87 41 10 359 359 359 351 346 338 337 332 329 327 339 348 348 358 3 2 1 7 13 26 25 34 36 74 65
201 221 246 203 257 273 234 243 275 222 245 198 164 131 113 99 55 15 359 354 0 355 348 342 340 338 336 332 336 352 352 356 7 7 9 18 22 31 46 41 50 77 55 70
216 151 214 210 210 257 262 247 256 266 236 158 141 142 88 53 22 359 353 352 354 347 348 342 343 340 340 342 358 358 355 5 13 19 25 25 31 44 50 49 45 70 65 75
91 165 188 244 265 270 250 239 227 218 170 154 173 160 67 7 351 347 347 345 343 342 344 342 344 347 6 30 10 1 1 17 16 27 30 28 39 48 62 53 62 62 60 73
193 180 204 254 208 213 221 203 186 171 173 180 174 88 344 330 337 336 336 337 339 344 343 344 348 7 48 25 10 2 11 24 22 33 36 36 38 52 72 56 49 60 73 86